Showing default

HULIANWANG DIGUI-14, 62974

Orbit data source: Space-Track

HULIANWANG DIGUI-14, 62974 is a payload satellite owned by Zhongguo Xingwang (CN) in LEO that was launched on Tue, 11 Feb 2025 UTC via a CHANG ZHENG 8A launch vehicle from the Wenchang Satellite Launch Center (WSC). Payload-class satellites include a variety of spacecraft equipped with specific instruments for various scientific and technological missions. These include communications satellites like Starlink; space stations such as the ISS; scientific satellites like the Hubble; Earth observation satellites from companies like Planet Labs, Umbra, and HawkEye 360; GPS; miniature CubeSats for education and research; and military/defense satellites.

Loading next visibility...
Identifier
62974, 2025-030D
Orbit
LEO
Country
Flag of CNCN / PRC
Related business
Manufacturer
CAST
Mission
Operational Civil Communications
Bus & Motor
XINGWANG C, Unknown motor
Mass
~700 kg wet, ~700 kg dry
Launch date (UTC)
2025-02-11 (1 year ago)
Launch vehicle
CHANG ZHENG 8A
Launch site
Wenchang Satellite Launch Center (WSC)
Object type
Payload
Rocket body
Debris
Shape & HBR
Box + 2 Pan, 2.0 m
Radar Cross Section
5.935 m², Large (>1 m²)

Expand to show TLE details & history
Last TLE update: 8 hours ago

TLE from 8 hours ago
0 HULIANWANG DIGUI-14
1 62974U 25030D   26104.97593803 -.00000080  00000-0  95602-4 0  9990
2 62974  50.0016 102.3339 0001051 304.9932  55.0841 13.29325666 57457
Epoch: 2026-04-14T23:25Z
TLE epoch observation values (Epoch: 2026-04-14T23:25:21.045Z)
Latitude
-0.00006°
Longitude
-92.1483°
Altitude
1,149.361 km
Speed
7.28 km/s
True Right ascension
06h 49m 20s
True Declination
0° 00' 00"
Sunlit
Object was in daylight at epoch
Visualization orbit readout
Latitude
Unknown
Longitude
Unknown
Altitude
Unknown
Speed
Unknown
Apparent Right ascension
Unknown
Apparent Declination
Unknown
Sunlit
N/A
Visualization observer readout
Local Sidereal Time
14:25:19
Azimuth
Unknown
Elevation
Unknown
Doppler factor
Unknown
Orbital elements
Apogee altitude
1,150.804 km
Perigee altitude
1,149.222 km
Semi-major axis
7,528.15 km
Eccentricity
0.00011
Inclination
50.0016°
RAAN
102.3339°
Arg. of periapsis
304.9932°
True anomaly
55.09398°
Mean anomaly
55.0841°
Eccentric anomaly
55.08904°
Mean motion
3.32285 °/min
Orbital period
108.34 mins
BSTAR
0.000095602
Loading maneuver chart data...
Computing Atmospheric mass density...
Loading historical data...
Loading historical data...
Loading historical data...
Loading historical data...
Loading historical data...
Loading historical data...
Loading historical data...

Documentation

Showing up to 5 results
|